Time,TemperatureF,DewpointF,PressureIn,WindDirection,WindDirectionDegrees,WindSpeedMPH,WindSpeedGustMPH,Humidity,HourlyPrecipIn,Conditions,Clouds,dailyrainin,SolarRadiationWatts/m^2,SoftwareType,DateUTC
2013-09-22 00:01:00,74.1,73.2,29.74,SSE,156,0.0,0.0,97,0.00,,,0.16,0.0,meteohub,2013-09-22 04:01:00,
2013-09-22 00:02:00,74.1,73.2,29.74,SSE,157,0.0,0.0,97,0.00,,,0.16,0.0,meteohub,2013-09-22 04:02:00,
2013-09-22 00:07:00,74.1,73.2,29.74,SSE,156,0.0,3.0,97,0.00,,,0.00,0.0,meteohub,2013-09-22 04:07:00,
2013-09-22 00:12:00,74.1,73.2,29.74,SSE,157,0.0,3.0,97,0.00,,,0.00,0.0,meteohub,2013-09-22 04:12:00,
2013-09-22 00:17:00,73.9,73.0,29.74,SSE,157,0.0,0.0,97,0.00,,,0.00,0.0,meteohub,2013-09-22 04:17:00,
2013-09-22 00:22:00,73.9,73.0,29.73,SSE,156,0.0,1.0,97,0.00,,,0.00,0.0,meteohub,2013-09-22 04:22:00,
2013-09-22 00:27:00,73.9,73.0,29.73,SSE,157,0.0,1.0,97,0.00,,,0.00,0.0,meteohub,2013-09-22 04:27:00,
2013-09-22 00:32:00,73.9,73.0,29.73,SSE,156,0.0,1.0,97,0.00,,,0.00,0.0,meteohub,2013-09-22 04:32:00,
2013-09-22 00:37:00,73.9,73.0,29.73,SSE,157,0.0,1.0,97,0.00,,,0.00,0.0,meteohub,2013-09-22 04:37:00,
2013-09-22 00:42:00,73.9,73.0,29.73,SSE,156,0.0,1.0,97,0.00,,,0.00,0.0,meteohub,2013-09-22 04:42:00,
2013-09-22 00:48:00,73.8,72.9,29.73,SSE,157,0.0,0.0,97,0.00,,,0.00,0.0,meteohub,2013-09-22 04:48:00,
2013-09-22 00:53:00,73.8,72.9,29.73,SSE,156,0.0,0.0,97,0.00,,,0.00,0.0,meteohub,2013-09-22 04:53:00,
2013-09-22 00:58:00,73.8,72.9,29.73,SSE,156,0.0,0.0,97,0.01,,,0.01,0.0,meteohub,2013-09-22 04:58:00,
2013-09-22 01:03:00,73.8,72.9,29.72,SSE,157,0.0,0.0,97,0.01,,,0.01,0.0,meteohub,2013-09-22 05:03:00,
2013-09-22 01:08:00,73.8,72.9,29.72,SSE,156,0.0,1.0,97,0.01,,,0.01,0.0,meteohub,2013-09-22 05:08:00,
2013-09-22 01:13:00,73.8,72.9,29.72,SSE,157,0.0,1.0,97,0.01,,,0.01,0.0,meteohub,2013-09-22 05:13:00,
2013-09-22 01:18:00,73.8,72.9,29.72,SSE,157,0.0,1.0,97,0.01,,,0.01,0.0,meteohub,2013-09-22 05:18:00,
2013-09-22 01:23:00,73.8,72.9,29.72,SSE,156,0.0,1.0,97,0.01,,,0.01,0.0,meteohub,2013-09-22 05:23:00,
2013-09-22 01:28:00,73.8,72.9,29.72,SSE,156,0.0,2.0,97,0.01,,,0.01,0.0,meteohub,2013-09-22 05:28:00,
2013-09-22 01:33:00,73.8,72.9,29.72,SSE,156,0.0,2.0,97,0.01,,,0.01,0.0,meteohub,2013-09-22 05:33:00,
2013-09-22 01:38:00,73.8,72.9,29.72,SSE,157,0.0,2.0,97,0.01,,,0.01,0.0,meteohub,2013-09-22 05:38:00,
2013-09-22 01:43:00,73.8,72.9,29.72,SSE,157,0.0,2.0,97,0.01,,,0.01,0.0,meteohub,2013-09-22 05:43:00,
2013-09-22 01:48:00,73.8,72.9,29.72,SSE,157,0.0,2.0,97,0.01,,,0.01,0.0,meteohub,2013-09-22 05:48:00,
2013-09-22 01:53:00,73.8,72.9,29.72,SSE,157,0.0,2.0,97,0.00,,,0.01,0.0,meteohub,2013-09-22 05:53:00,
2013-09-22 01:58:00,73.8,72.9,29.72,SSE,157,0.0,1.0,97,0.00,,,0.01,0.0,meteohub,2013-09-22 05:58:00,
2013-09-22 02:03:00,73.8,72.9,29.72,SSE,156,0.0,1.0,97,0.00,,,0.01,0.0,meteohub,2013-09-22 06:03:00,
2013-09-22 02:08:00,73.8,72.9,29.72,SSE,156,0.0,1.0,97,0.00,,,0.01,0.0,meteohub,2013-09-22 06:08:00,
2013-09-22 02:13:00,73.8,72.9,29.72,SSE,156,0.0,1.0,97,0.00,,,0.01,0.0,meteohub,2013-09-22 06:13:00,
2013-09-22 02:19:00,73.8,72.9,29.72,SSE,156,0.0,1.0,97,0.00,,,0.01,0.0,meteohub,2013-09-22 06:19:00,
2013-09-22 02:24:00,73.8,72.9,29.71,SSE,157,0.0,1.0,97,0.00,,,0.01,0.0,meteohub,2013-09-22 06:24:00,
2013-09-22 02:29:00,73.8,72.9,29.71,SSE,156,0.0,1.0,97,0.00,,,0.01,0.0,meteohub,2013-09-22 06:29:00,
2013-09-22 02:34:00,73.8,72.9,29.72,SSE,157,0.0,1.0,97,0.00,,,0.01,0.0,meteohub,2013-09-22 06:34:00,
2013-09-22 02:39:00,73.8,72.9,29.71,SSE,157,0.0,1.0,97,0.00,,,0.01,0.0,meteohub,2013-09-22 06:39:00,
2013-09-22 02:44:00,73.8,72.9,29.71,SSE,157,0.0,0.0,97,0.00,,,0.01,0.0,meteohub,2013-09-22 06:44:00,
2013-09-22 02:49:00,73.8,72.9,29.71,SSE,156,0.0,0.0,97,0.00,,,0.01,0.0,meteohub,2013-09-22 06:49:00,
2013-09-22 02:54:00,73.6,72.7,29.71,SSE,157,0.0,1.0,97,0.00,,,0.01,0.0,meteohub,2013-09-22 06:54:00,
2013-09-22 02:59:00,73.6,72.7,29.71,SSE,157,0.0,1.0,97,0.01,,,0.01,0.0,meteohub,2013-09-22 06:59:00,
2013-09-22 03:04:00,73.6,72.7,29.71,SSE,156,0.0,1.0,97,0.01,,,0.02,0.0,meteohub,2013-09-22 07:04:00,
2013-09-22 03:09:00,73.6,72.7,29.71,SSE,157,0.0,3.0,97,0.01,,,0.02,0.0,meteohub,2013-09-22 07:09:00,
2013-09-22 03:14:00,73.6,72.7,29.71,SSE,156,0.0,3.0,97,0.01,,,0.02,0.0,meteohub,2013-09-22 07:14:00,
2013-09-22 03:19:00,73.6,72.7,29.71,SSE,157,0.0,1.0,97,0.01,,,0.02,0.0,meteohub,2013-09-22 07:19:00,
2013-09-22 03:24:00,73.4,72.5,29.70,SSE,157,0.0,1.0,97,0.01,,,0.02,0.0,meteohub,2013-09-22 07:24:00,
2013-09-22 03:29:00,73.4,72.5,29.70,SSE,157,0.0,1.0,97,0.01,,,0.02,0.0,meteohub,2013-09-22 07:29:00,
2013-09-22 03:34:00,73.4,72.5,29.70,SSE,157,0.0,1.0,97,0.01,,,0.02,0.0,meteohub,2013-09-22 07:34:00,
2013-09-22 03:39:00,73.6,72.7,29.70,SSE,157,0.0,3.0,97,0.01,,,0.02,0.0,meteohub,2013-09-22 07:39:00,
2013-09-22 03:44:00,73.6,72.7,29.70,SSE,157,0.0,3.0,97,0.01,,,0.02,0.0,meteohub,2013-09-22 07:44:00,
2013-09-22 03:49:00,73.6,72.7,29.70,SSE,157,1.0,3.0,97,0.01,,,0.02,0.0,meteohub,2013-09-22 07:49:00,
2013-09-22 03:54:00,73.6,72.7,29.70,SSE,156,0.0,1.0,97,0.01,,,0.02,0.0,meteohub,2013-09-22 07:54:00,
2013-09-22 03:59:00,73.6,72.7,29.70,SSE,157,0.0,2.0,97,0.00,,,0.02,0.0,meteohub,2013-09-22 07:59:00,
2013-09-22 04:04:00,73.4,72.5,29.70,SSE,157,0.0,2.0,97,0.00,,,0.02,0.0,meteohub,2013-09-22 08:04:00,
2013-09-22 04:09:00,73.4,72.5,29.70,SSE,156,0.0,1.0,97,0.01,,,0.03,0.0,meteohub,2013-09-22 08:09:00,
2013-09-22 04:14:00,73.4,72.5,29.70,SSE,157,0.0,1.0,97,0.01,,,0.03,0.0,meteohub,2013-09-22 08:14:00,
2013-09-22 04:20:00,73.4,72.5,29.70,SSE,156,0.0,1.0,97,0.01,,,0.03,0.0,meteohub,2013-09-22 08:20:00,
2013-09-22 04:25:00,73.2,72.3,29.69,SSE,156,0.0,1.0,97,0.01,,,0.03,0.0,meteohub,2013-09-22 08:25:00,
2013-09-22 04:30:00,73.4,72.5,29.69,SSE,156,0.0,1.0,97,0.01,,,0.03,0.0,meteohub,2013-09-22 08:30:00,
2013-09-22 04:35:00,73.4,72.5,29.69,SSE,157,0.0,1.0,97,0.01,,,0.03,0.0,meteohub,2013-09-22 08:35:00,
2013-09-22 04:40:00,73.4,72.5,29.69,SSE,157,0.0,1.0,97,0.01,,,0.03,0.0,meteohub,2013-09-22 08:40:00,
2013-09-22 04:45:00,73.2,72.3,29.69,SSE,157,0.0,1.0,97,0.01,,,0.03,0.0,meteohub,2013-09-22 08:45:00,
2013-09-22 04:50:00,73.2,72.3,29.69,SSE,156,0.0,1.0,97,0.01,,,0.03,0.0,meteohub,2013-09-22 08:50:00,
2013-09-22 04:55:00,73.2,72.3,29.69,SSE,156,0.0,1.0,97,0.01,,,0.03,0.0,meteohub,2013-09-22 08:55:00,
2013-09-22 05:00:00,73.2,72.3,29.69,SSE,157,0.0,1.0,97,0.01,,,0.03,0.0,meteohub,2013-09-22 09:00:00,
2013-09-22 05:05:00,73.2,72.3,29.69,SSE,157,0.0,0.0,97,0.00,,,0.03,0.0,meteohub,2013-09-22 09:05:00,
2013-09-22 05:10:00,73.2,72.3,29.69,SSE,156,0.0,1.0,97,0.00,,,0.03,0.0,meteohub,2013-09-22 09:10:00,
2013-09-22 05:15:00,73.2,72.3,29.69,SSE,157,0.0,1.0,97,0.00,,,0.03,0.0,meteohub,2013-09-22 09:15:00,
2013-09-22 05:20:00,73.2,72.3,29.69,SSE,157,0.0,1.0,97,0.00,,,0.03,0.0,meteohub,2013-09-22 09:20:00,
2013-09-22 05:25:00,73.2,72.3,29.69,SSE,156,0.0,1.0,97,0.00,,,0.03,0.0,meteohub,2013-09-22 09:25:00,
2013-09-22 05:30:00,73.2,72.3,29.69,SSE,157,0.0,1.0,97,0.00,,,0.03,0.0,meteohub,2013-09-22 09:30:00,
2013-09-22 05:35:00,73.2,72.3,29.69,SSE,156,0.0,1.0,97,0.00,,,0.03,0.0,meteohub,2013-09-22 09:35:00,
2013-09-22 05:40:00,73.2,72.3,29.69,SSE,156,0.0,1.0,97,0.00,,,0.03,0.0,meteohub,2013-09-22 09:40:00,
2013-09-22 05:45:00,73.2,72.3,29.69,SSE,157,0.0,1.0,97,0.00,,,0.03,0.0,meteohub,2013-09-22 09:45:00,
2013-09-22 05:50:00,73.0,72.1,29.69,SSE,157,0.0,1.0,97,0.00,,,0.03,0.0,meteohub,2013-09-22 09:50:00,
2013-09-22 05:55:00,73.0,72.1,29.69,SSE,157,0.0,2.0,97,0.00,,,0.03,0.0,meteohub,2013-09-22 09:55:00,
2013-09-22 06:00:00,73.0,72.1,29.70,SSE,156,0.0,2.0,97,0.00,,,0.03,0.0,meteohub,2013-09-22 10:00:00,
2013-09-22 06:05:00,73.0,72.1,29.70,SSE,156,0.0,2.0,97,0.00,,,0.03,0.0,meteohub,2013-09-22 10:05:00,
2013-09-22 06:10:00,73.0,72.1,29.70,SSE,157,0.0,1.0,97,0.00,,,0.03,0.0,meteohub,2013-09-22 10:10:00,
2013-09-22 06:15:00,73.0,72.1,29.70,SSE,157,0.0,2.0,97,0.00,,,0.03,0.0,meteohub,2013-09-22 10:15:00,
2013-09-22 06:20:00,73.0,72.1,29.70,SSE,156,0.0,2.0,97,0.00,,,0.03,0.0,meteohub,2013-09-22 10:20:00,
2013-09-22 06:25:00,73.0,72.1,29.70,SSE,157,0.0,2.0,97,0.00,,,0.03,0.0,meteohub,2013-09-22 10:25:00,
2013-09-22 06:30:00,73.0,72.1,29.70,SSE,157,0.0,2.0,97,0.00,,,0.03,0.0,meteohub,2013-09-22 10:30:00,
2013-09-22 06:35:00,73.0,72.1,29.70,SSE,156,0.0,2.0,97,0.00,,,0.03,0.0,meteohub,2013-09-22 10:35:00,
2013-09-22 06:40:00,73.0,72.1,29.71,SSE,156,0.0,1.0,97,0.00,,,0.03,0.0,meteohub,2013-09-22 10:40:00,
2013-09-22 06:45:00,73.0,72.1,29.71,SSE,156,0.0,0.0,97,0.00,,,0.03,0.0,meteohub,2013-09-22 10:45:00,
2013-09-22 06:50:00,73.0,72.1,29.71,SSE,157,0.0,1.0,97,0.00,,,0.03,0.0,meteohub,2013-09-22 10:50:00,
2013-09-22 06:58:00,73.0,71.8,29.71,SSE,156,0.0,2.0,96,0.00,,,0.03,0.0,meteohub,2013-09-22 10:58:00,
2013-09-22 07:03:00,73.0,71.8,29.71,SSE,157,0.0,2.0,96,0.00,,,0.03,0.0,meteohub,2013-09-22 11:03:00,
2013-09-22 07:08:00,73.0,71.8,29.71,SSE,156,0.0,0.0,96,0.00,,,0.03,0.0,meteohub,2013-09-22 11:08:00,
2013-09-22 07:13:00,73.0,71.8,29.71,SSE,157,0.0,1.0,96,0.00,,,0.03,0.0,meteohub,2013-09-22 11:13:00,
2013-09-22 07:19:00,73.0,71.8,29.71,SSE,156,0.0,3.0,96,0.00,,,0.03,0.0,meteohub,2013-09-22 11:19:00,
2013-09-22 07:24:00,73.0,72.1,29.71,SSE,156,1.0,3.0,97,0.00,,,0.03,0.0,meteohub,2013-09-22 11:24:00,
2013-09-22 07:29:00,73.0,72.1,29.71,SSE,157,0.0,1.0,97,0.00,,,0.03,0.0,meteohub,2013-09-22 11:29:00,
2013-09-22 07:34:00,73.0,72.1,29.71,SSE,157,2.0,2.0,97,0.00,,,0.03,0.0,meteohub,2013-09-22 11:34:00,
2013-09-22 07:39:00,73.0,72.1,29.71,SSE,157,0.0,2.0,97,0.01,,,0.04,7.0,meteohub,2013-09-22 11:39:00,
2013-09-22 07:44:00,73.0,72.1,29.71,SSE,157,0.0,3.0,97,0.01,,,0.04,9.0,meteohub,2013-09-22 11:44:00,
2013-09-22 07:49:00,73.0,72.1,29.71,South,188,0.0,3.0,97,0.01,,,0.04,11.0,meteohub,2013-09-22 11:49:00,
2013-09-22 07:54:00,73.0,72.1,29.71,NNW,342,0.0,1.0,97,0.01,,,0.04,9.0,meteohub,2013-09-22 11:54:00,
2013-09-22 07:59:00,73.0,72.1,29.72,NNW,341,0.0,1.0,97,0.01,,,0.04,12.0,meteohub,2013-09-22 11:59:00,
2013-09-22 08:04:00,73.0,72.1,29.72,NNW,342,0.0,0.0,97,0.01,,,0.04,19.0,meteohub,2013-09-22 12:04:00,
2013-09-22 08:09:00,73.0,72.1,29.72,NNW,341,0.0,0.0,97,0.01,,,0.04,26.0,meteohub,2013-09-22 12:09:00,
2013-09-22 08:14:00,73.0,72.1,29.72,NNW,341,0.0,1.0,97,0.02,,,0.05,32.0,meteohub,2013-09-22 12:14:00,
2013-09-22 08:19:00,73.0,72.1,29.71,SSW,209,0.0,1.0,97,0.02,,,0.05,35.0,meteohub,2013-09-22 12:19:00,
2013-09-22 08:24:00,73.0,72.1,29.72,SSW,209,0.0,1.0,97,0.02,,,0.05,40.0,meteohub,2013-09-22 12:24:00,
2013-09-22 08:29:00,73.2,72.3,29.72,SSW,209,0.0,1.0,97,0.02,,,0.05,60.0,meteohub,2013-09-22 12:29:00,
2013-09-22 08:34:00,73.2,72.3,29.72,SSW,209,0.0,1.0,97,0.02,,,0.05,58.0,meteohub,2013-09-22 12:34:00,
2013-09-22 08:39:00,73.4,72.5,29.71,SSW,209,0.0,1.0,97,0.01,,,0.05,70.0,meteohub,2013-09-22 12:39:00,
2013-09-22 08:44:00,73.4,72.5,29.71,SSW,209,0.0,0.0,97,0.01,,,0.05,84.0,meteohub,2013-09-22 12:44:00,
2013-09-22 08:49:00,73.6,72.7,29.71,South,180,0.0,1.0,97,0.01,,,0.05,86.0,meteohub,2013-09-22 12:49:00,
2013-09-22 08:54:00,73.6,72.7,29.71,South,180,0.0,1.0,97,0.01,,,0.05,70.0,meteohub,2013-09-22 12:54:00,
2013-09-22 08:59:00,73.8,72.9,29.72,ESE,113,0.0,1.0,97,0.01,,,0.05,63.0,meteohub,2013-09-22 12:59:00,
2013-09-22 09:04:00,73.8,72.9,29.72,ESE,113,0.0,1.0,97,0.01,,,0.05,60.0,meteohub,2013-09-22 13:04:00,
2013-09-22 09:09:00,73.8,72.9,29.72,ESE,113,0.0,1.0,97,0.01,,,0.05,67.0,meteohub,2013-09-22 13:09:00,
2013-09-22 09:14:00,73.8,72.9,29.72,ESE,113,0.0,2.0,97,0.00,,,0.05,69.0,meteohub,2013-09-22 13:14:00,
2013-09-22 09:19:00,73.8,72.9,29.72,ESE,113,0.0,2.0,97,0.00,,,0.05,93.0,meteohub,2013-09-22 13:19:00,
2013-09-22 09:24:00,73.9,73.0,29.73,ESE,113,0.0,2.0,97,0.00,,,0.05,91.0,meteohub,2013-09-22 13:24:00,
2013-09-22 09:29:00,74.1,73.2,29.73,ESE,113,2.0,0.0,97,0.00,,,0.05,113.0,meteohub,2013-09-22 13:29:00,
2013-09-22 09:34:00,74.1,73.2,29.73,ESE,113,0.0,1.0,97,0.00,,,0.05,176.0,meteohub,2013-09-22 13:34:00,
2013-09-22 09:39:00,74.3,73.4,29.73,SSE,153,0.0,2.0,97,0.00,,,0.05,158.0,meteohub,2013-09-22 13:39:00,
2013-09-22 09:44:00,74.5,73.6,29.73,West,281,0.0,2.0,97,0.00,,,0.05,127.0,meteohub,2013-09-22 13:44:00,
2013-09-22 09:49:00,74.5,73.6,29.74,NW,306,0.0,4.0,97,0.00,,,0.05,72.0,meteohub,2013-09-22 13:49:00,
2013-09-22 09:54:00,74.5,73.6,29.74,NW,304,0.0,4.0,97,0.00,,,0.05,53.0,meteohub,2013-09-22 13:54:00,
2013-09-22 09:59:00,74.5,73.6,29.74,NW,304,0.0,4.0,97,0.00,,,0.05,77.0,meteohub,2013-09-22 13:59:00,
2013-09-22 10:04:00,74.5,73.6,29.74,West,278,3.0,3.0,97,0.00,,,0.05,135.0,meteohub,2013-09-22 14:04:00,
2013-09-22 10:09:00,74.7,73.8,29.74,SSW,205,0.0,1.0,97,0.00,,,0.05,105.0,meteohub,2013-09-22 14:09:00,
2013-09-22 10:14:00,74.8,73.9,29.74,West,260,0.0,3.0,97,0.00,,,0.05,200.0,meteohub,2013-09-22 14:14:00,
2013-09-22 10:19:00,75.0,74.1,29.75,SSE,159,0.0,3.0,97,0.00,,,0.05,207.0,meteohub,2013-09-22 14:19:00,
2013-09-22 10:24:00,75.4,74.5,29.75,SSE,159,0.0,3.0,97,0.00,,,0.05,244.0,meteohub,2013-09-22 14:24:00,
2013-09-22 10:29:00,75.6,74.7,29.75,SSE,159,0.0,2.0,97,0.00,,,0.05,200.0,meteohub,2013-09-22 14:29:00,
2013-09-22 10:34:00,75.6,74.3,29.75,WNW,285,0.0,2.0,96,0.00,,,0.05,276.0,meteohub,2013-09-22 14:34:00,
2013-09-22 10:39:00,75.7,74.5,29.75,WNW,285,0.0,3.0,96,0.00,,,0.05,244.0,meteohub,2013-09-22 14:39:00,
2013-09-22 10:44:00,75.7,74.5,29.75,WNW,285,2.0,3.0,96,0.00,,,0.05,225.0,meteohub,2013-09-22 14:44:00,
2013-09-22 10:49:00,75.9,74.7,29.75,WNW,285,0.0,3.0,96,0.00,,,0.05,227.0,meteohub,2013-09-22 14:49:00,
2013-09-22 10:54:00,76.1,74.5,29.75,WNW,284,0.0,3.0,95,0.00,,,0.05,190.0,meteohub,2013-09-22 14:54:00,
2013-09-22 10:59:00,76.3,74.7,29.75,West,268,0.0,3.0,95,0.00,,,0.05,221.0,meteohub,2013-09-22 14:59:00,
2013-09-22 11:04:00,76.5,74.8,29.75,West,268,0.0,2.0,95,0.00,,,0.05,236.0,meteohub,2013-09-22 15:04:00,
2013-09-22 11:09:00,76.6,75.0,29.75,SE,140,0.0,2.0,95,0.00,,,0.05,264.0,meteohub,2013-09-22 15:09:00,
2013-09-22 11:14:00,76.6,74.8,29.75,West,278,0.0,2.0,94,0.00,,,0.05,248.0,meteohub,2013-09-22 15:14:00,
2013-09-22 11:19:00,76.8,74.7,29.75,WNW,303,4.0,6.0,93,0.00,,,0.05,188.0,meteohub,2013-09-22 15:19:00,
2013-09-22 11:24:00,76.6,74.5,29.75,WNW,288,0.0,6.0,93,0.00,,,0.05,211.0,meteohub,2013-09-22 15:24:00,
2013-09-22 11:29:00,76.8,74.7,29.75,WNW,286,0.0,6.0,93,0.00,,,0.05,267.0,meteohub,2013-09-22 15:29:00,
2013-09-22 11:34:00,76.8,74.3,29.75,SW,229,0.0,5.0,92,0.00,,,0.05,257.0,meteohub,2013-09-22 15:34:00,
2013-09-22 11:39:00,77.2,74.7,29.75,West,270,0.0,4.0,92,0.00,,,0.05,292.0,meteohub,2013-09-22 15:39:00,
2013-09-22 11:44:00,77.4,74.8,29.74,West,274,0.0,4.0,92,0.00,,,0.05,374.0,meteohub,2013-09-22 15:44:00,
2013-09-22 11:49:00,77.5,74.7,29.74,SW,217,0.0,4.0,91,0.00,,,0.05,318.0,meteohub,2013-09-22 15:49:00,
2013-09-22 11:55:00,77.5,74.3,29.74,NW,309,7.0,7.0,90,0.00,,,0.05,278.0,meteohub,2013-09-22 15:55:00,
2013-09-22 12:00:00,77.7,74.5,29.74,West,259,0.0,6.0,90,0.00,,,0.05,265.0,meteohub,2013-09-22 16:00:00,
2013-09-22 12:05:00,77.9,74.7,29.74,WSW,245,0.0,7.0,90,0.00,,,0.05,417.0,meteohub,2013-09-22 16:05:00,
2013-09-22 12:10:00,78.3,75.0,29.74,West,269,0.0,7.0,90,0.00,,,0.05,374.0,meteohub,2013-09-22 16:10:00,
2013-09-22 12:15:00,78.4,74.8,29.74,West,277,0.0,7.0,89,0.00,,,0.05,380.0,meteohub,2013-09-22 16:15:00,
2013-09-22 12:20:00,78.6,75.0,29.74,West,279,0.0,6.0,89,0.00,,,0.05,350.0,meteohub,2013-09-22 16:20:00,
2013-09-22 12:25:00,79.0,75.2,29.74,West,279,0.0,6.0,88,0.00,,,0.05,248.0,meteohub,2013-09-22 16:25:00,
2013-09-22 12:30:00,78.8,74.7,29.74,SSW,198,0.0,6.0,87,0.00,,,0.05,309.0,meteohub,2013-09-22 16:30:00,
2013-09-22 12:35:00,78.8,74.3,29.74,WSW,237,0.0,6.0,86,0.00,,,0.05,369.0,meteohub,2013-09-22 16:35:00,
2013-09-22 12:40:00,79.2,74.7,29.73,SSW,196,0.0,6.0,86,0.00,,,0.05,548.0,meteohub,2013-09-22 16:40:00,
2013-09-22 12:45:00,79.7,75.2,29.73,WNW,288,5.0,6.0,86,0.00,,,0.05,759.0,meteohub,2013-09-22 16:45:00,
2013-09-22 12:50:00,80.2,75.4,29.73,NNE,14,0.0,7.0,85,0.00,,,0.05,432.0,meteohub,2013-09-22 16:50:00,
2013-09-22 12:55:00,80.2,75.0,29.73,West,265,0.0,7.0,84,0.00,,,0.05,367.0,meteohub,2013-09-22 16:55:00,
2013-09-22 13:00:00,80.4,74.8,29.73,SSE,156,0.0,7.0,83,0.00,,,0.05,425.0,meteohub,2013-09-22 17:00:00,
2013-09-22 13:05:00,80.4,74.5,29.73,West,274,0.0,6.0,82,0.00,,,0.05,362.0,meteohub,2013-09-22 17:05:00,
2013-09-22 13:10:00,80.4,74.8,29.73,North,0,2.0,6.0,83,0.00,,,0.05,406.0,meteohub,2013-09-22 17:10:00,
2013-09-22 13:15:00,80.4,74.8,29.73,SSW,211,2.0,6.0,83,0.00,,,0.05,563.0,meteohub,2013-09-22 17:15:00,
2013-09-22 13:20:00,80.4,74.5,29.73,WNW,294,1.0,6.0,82,0.00,,,0.05,617.0,meteohub,2013-09-22 17:20:00,
2013-09-22 13:25:00,80.8,75.2,29.73,South,173,1.0,8.0,83,0.00,,,0.05,749.0,meteohub,2013-09-22 17:25:00,
2013-09-22 13:30:00,81.3,75.4,29.73,SSE,168,2.0,8.0,82,0.00,,,0.05,610.0,meteohub,2013-09-22 17:30:00,
2013-09-22 13:36:00,81.9,75.0,29.73,WNW,288,2.0,5.0,80,0.00,,,0.05,385.0,meteohub,2013-09-22 17:36:00,
2013-09-22 13:41:00,81.1,74.7,29.73,SSW,202,3.0,8.0,81,0.00,,,0.05,283.0,meteohub,2013-09-22 17:41:00,
2013-09-22 13:46:00,81.0,75.0,29.73,West,277,3.0,8.0,82,0.00,,,0.05,287.0,meteohub,2013-09-22 17:46:00,
2013-09-22 13:52:00,80.8,74.8,29.73,WNW,296,0.0,8.0,82,0.00,,,0.05,258.0,meteohub,2013-09-22 17:52:00,
2013-09-22 13:57:00,80.6,75.0,29.73,West,281,0.0,7.0,83,0.00,,,0.05,336.0,meteohub,2013-09-22 17:57:00,
2013-09-22 14:02:00,80.6,74.7,29.73,South,175,0.0,6.0,82,0.00,,,0.05,334.0,meteohub,2013-09-22 18:02:00,
2013-09-22 14:07:00,80.8,75.2,29.73,South,186,0.0,6.0,83,0.00,,,0.05,381.0,meteohub,2013-09-22 18:07:00,
2013-09-22 14:12:00,81.0,75.0,29.73,SE,134,0.0,6.0,82,0.00,,,0.05,288.0,meteohub,2013-09-22 18:12:00,
2013-09-22 14:17:00,81.1,75.6,29.73,NW,306,0.0,3.0,83,0.00,,,0.05,243.0,meteohub,2013-09-22 18:17:00,
2013-09-22 14:22:00,81.0,74.7,29.73,SE,136,0.0,5.0,81,0.00,,,0.05,223.0,meteohub,2013-09-22 18:22:00,
2013-09-22 14:27:00,81.0,75.0,29.72,SSW,209,0.0,5.0,82,0.00,,,0.05,253.0,meteohub,2013-09-22 18:27:00,
2013-09-22 14:32:00,81.0,74.7,29.72,ESE,113,0.0,3.0,81,0.00,,,0.05,211.0,meteohub,2013-09-22 18:32:00,
2013-09-22 14:37:00,80.6,74.3,29.72,WNW,288,1.0,5.0,81,0.00,,,0.05,156.0,meteohub,2013-09-22 18:37:00,
2013-09-22 14:42:00,80.4,74.5,29.72,WNW,289,0.0,8.0,82,0.00,,,0.05,109.0,meteohub,2013-09-22 18:42:00,
2013-09-22 14:47:00,80.1,74.5,29.73,WNW,295,7.0,8.0,83,0.00,,,0.05,39.0,meteohub,2013-09-22 18:47:00,
2013-09-22 14:52:00,78.1,73.6,29.73,WNW,294,0.0,10.0,86,0.01,,,0.06,14.0,meteohub,2013-09-22 18:52:00,
2013-09-22 14:57:00,76.6,73.2,29.73,NW,304,3.0,10.0,89,0.01,,,0.06,12.0,meteohub,2013-09-22 18:57:00,
2013-09-22 15:02:00,75.6,72.7,29.73,WNW,292,0.0,10.0,91,0.04,,,0.09,18.0,meteohub,2013-09-22 19:02:00,
2013-09-22 15:07:00,74.8,72.3,29.73,West,272,0.0,7.0,92,0.05,,,0.10,39.0,meteohub,2013-09-22 19:07:00,
2013-09-22 15:12:00,74.3,72.1,29.73,WNW,292,0.0,6.0,93,0.12,,,0.17,81.0,meteohub,2013-09-22 19:12:00,
2013-09-22 15:17:00,73.9,72.1,29.73,WNW,296,0.0,7.0,94,0.13,,,0.18,125.0,meteohub,2013-09-22 19:17:00,
2013-09-22 15:22:00,73.9,72.1,29.73,WNW,296,0.0,8.0,94,0.13,,,0.18,130.0,meteohub,2013-09-22 19:22:00,
2013-09-22 15:27:00,74.1,72.7,29.73,WNW,296,0.0,8.0,95,0.13,,,0.18,134.0,meteohub,2013-09-22 19:27:00,
2013-09-22 15:32:00,74.3,72.9,29.73,WNW,296,0.0,4.0,95,0.13,,,0.18,141.0,meteohub,2013-09-22 19:32:00,
2013-09-22 15:37:00,74.5,73.0,29.73,WNW,296,0.0,1.0,95,0.13,,,0.18,162.0,meteohub,2013-09-22 19:37:00,
2013-09-22 15:42:00,74.5,73.0,29.73,West,275,0.0,2.0,95,0.14,,,0.19,153.0,meteohub,2013-09-22 19:42:00,
2013-09-22 15:47:00,74.5,73.2,29.73,West,267,2.0,2.0,96,0.14,,,0.19,160.0,meteohub,2013-09-22 19:47:00,
2013-09-22 15:52:00,74.5,73.2,29.73,WNW,296,1.0,3.0,96,0.13,,,0.19,158.0,meteohub,2013-09-22 19:52:00,
2013-09-22 15:57:00,74.7,73.4,29.73,North,349,0.0,5.0,96,0.13,,,0.19,156.0,meteohub,2013-09-22 19:57:00,
2013-09-22 16:02:00,74.7,73.4,29.73,NNW,348,0.0,5.0,96,0.09,,,0.19,148.0,meteohub,2013-09-22 20:02:00,
2013-09-22 16:07:00,74.7,73.4,29.73,WNW,292,0.0,1.0,96,0.04,,,0.19,121.0,meteohub,2013-09-22 20:07:00,
2013-09-22 16:12:00,74.8,73.6,29.73,West,279,1.0,4.0,96,0.02,,,0.19,132.0,meteohub,2013-09-22 20:12:00,
2013-09-22 16:17:00,74.8,73.6,29.73,West,279,0.0,5.0,96,0.01,,,0.19,141.0,meteohub,2013-09-22 20:17:00,
2013-09-22 16:22:00,74.8,73.6,29.73,West,279,0.0,5.0,96,0.01,,,0.19,120.0,meteohub,2013-09-22 20:22:00,
2013-09-22 16:27:00,75.0,73.8,29.73,WNW,291,0.0,5.0,96,0.01,,,0.19,123.0,meteohub,2013-09-22 20:27:00,
2013-09-22 16:32:00,75.0,73.8,29.73,WNW,293,0.0,3.0,96,0.01,,,0.19,93.0,meteohub,2013-09-22 20:32:00,
2013-09-22 16:37:00,74.8,73.6,29.73,SW,214,0.0,7.0,96,0.01,,,0.19,114.0,meteohub,2013-09-22 20:37:00,
2013-09-22 16:42:00,75.0,73.8,29.73,SW,214,0.0,7.0,96,0.00,,,0.19,130.0,meteohub,2013-09-22 20:42:00,
2013-09-22 16:47:00,75.0,73.8,29.73,SW,215,0.0,7.0,96,0.00,,,0.19,70.0,meteohub,2013-09-22 20:47:00,
2013-09-22 16:52:00,75.0,73.8,29.73,West,272,0.0,2.0,96,0.00,,,0.19,35.0,meteohub,2013-09-22 20:52:00,
2013-09-22 16:57:00,74.8,73.6,29.73,West,280,0.0,3.0,96,0.00,,,0.19,49.0,meteohub,2013-09-22 20:57:00,
2013-09-22 17:02:00,74.8,73.6,29.73,WNW,282,0.0,3.0,96,0.00,,,0.19,47.0,meteohub,2013-09-22 21:02:00,
2013-09-22 17:07:00,74.7,73.4,29.73,West,281,1.0,3.0,96,0.00,,,0.19,107.0,meteohub,2013-09-22 21:07:00,
2013-09-22 17:12:00,74.7,73.4,29.73,WNW,288,0.0,3.0,96,0.00,,,0.19,151.0,meteohub,2013-09-22 21:12:00,
2013-09-22 17:17:00,74.7,73.4,29.73,WNW,288,0.0,3.0,96,0.00,,,0.19,121.0,meteohub,2013-09-22 21:17:00,
2013-09-22 17:22:00,74.8,73.6,29.73,WSW,251,0.0,5.0,96,0.00,,,0.19,74.0,meteohub,2013-09-22 21:22:00,
2013-09-22 17:27:00,74.9,74.0,29.74,West,268,0.0,-999.0,96,-99.99,,,0.19,62,weatherlink.com 1.10,2013-09-22 21:27:00,
2013-09-22 17:32:00,74.8,73.6,29.74,West,271,0.0,4.0,96,0.00,,,0.19,65.0,meteohub,2013-09-22 21:32:00,
2013-09-22 17:37:00,74.8,73.6,29.74,West,271,0.0,4.0,96,0.00,,,0.19,58.0,meteohub,2013-09-22 21:37:00,
2013-09-22 17:42:00,74.9,74.0,29.74,West,271,0.0,-999.0,96,-99.99,,,0.19,53,weatherlink.com 1.10,2013-09-22 21:42:00,
2013-09-22 17:47:00,74.8,73.6,29.74,NNW,336,0.0,1.0,96,0.00,,,0.19,47.0,meteohub,2013-09-22 21:47:00,
2013-09-22 17:52:00,74.8,73.6,29.74,NW,321,0.0,1.0,96,0.00,,,0.19,60.0,meteohub,2013-09-22 21:52:00,
2013-09-22 17:57:00,74.8,74.0,29.75,SSE,159,0.0,-999.0,96,-99.99,,,0.19,46,weatherlink.com 1.10,2013-09-22 21:57:00,
2013-09-22 18:02:00,74.8,73.6,29.74,WSW,249,0.0,1.0,96,0.00,,,0.19,39.0,meteohub,2013-09-22 22:02:00,
2013-09-22 18:07:00,74.7,73.2,29.74,WSW,249,0.0,2.0,95,0.00,,,0.19,21.0,meteohub,2013-09-22 22:07:00,
2013-09-22 18:12:00,74.7,73.0,29.74,NW,323,0.0,-999.0,95,-99.99,,,0.19,37,weatherlink.com 1.10,2013-09-22 22:12:00,
2013-09-22 18:17:00,74.7,73.2,29.74,NW,323,0.0,4.0,95,0.00,,,0.19,21.0,meteohub,2013-09-22 22:17:00,
2013-09-22 18:22:00,74.7,73.2,29.75,NW,310,0.0,4.0,95,0.00,,,0.19,37.0,meteohub,2013-09-22 22:22:00,
2013-09-22 18:27:00,74.7,73.2,29.75,NW,311,0.0,1.0,95,0.00,,,0.19,46.0,meteohub,2013-09-22 22:27:00,
2013-09-22 18:32:00,74.7,73.2,29.75,NW,311,0.0,1.0,95,0.00,,,0.19,28.0,meteohub,2013-09-22 22:32:00,
2013-09-22 18:37:00,74.7,73.2,29.75,NW,311,0.0,1.0,95,0.00,,,0.19,14.0,meteohub,2013-09-22 22:37:00,
2013-09-22 18:42:00,74.7,73.2,29.75,NW,310,0.0,1.0,95,0.00,,,0.19,12.0,meteohub,2013-09-22 22:42:00,
2013-09-22 18:47:00,74.7,73.4,29.75,NW,311,0.0,1.0,96,0.00,,,0.19,19.0,meteohub,2013-09-22 22:47:00,
2013-09-22 18:52:00,74.5,73.0,29.75,NW,311,0.0,1.0,95,0.00,,,0.19,18.0,meteohub,2013-09-22 22:52:00,
2013-09-22 18:57:00,74.5,73.0,29.75,NW,311,0.0,1.0,95,0.00,,,0.19,11.0,meteohub,2013-09-22 22:57:00,
2013-09-22 19:02:00,74.3,72.9,29.75,NW,318,0.0,3.0,95,0.00,,,0.19,9.0,meteohub,2013-09-22 23:02:00,
2013-09-22 19:07:00,74.1,72.7,29.75,NW,319,0.0,4.0,95,0.00,,,0.19,7.0,meteohub,2013-09-22 23:07:00,
2013-09-22 19:12:00,74.1,72.7,29.75,NW,319,0.0,4.0,95,0.00,,,0.19,0.0,meteohub,2013-09-22 23:12:00,
2013-09-22 19:17:00,74.1,72.7,29.76,NW,319,0.0,1.0,95,0.00,,,0.19,0.0,meteohub,2013-09-22 23:17:00,
2013-09-22 19:22:00,74.1,72.7,29.76,NW,319,0.0,1.0,95,0.00,,,0.19,0.0,meteohub,2013-09-22 23:22:00,
2013-09-22 19:27:00,73.9,72.5,29.76,NW,318,0.0,1.0,95,0.00,,,0.19,0.0,meteohub,2013-09-22 23:27:00,
2013-09-22 19:32:00,73.8,72.3,29.76,NW,319,0.0,1.0,95,0.00,,,0.19,0.0,meteohub,2013-09-22 23:32:00,
2013-09-22 19:37:00,73.6,72.1,29.76,NW,319,0.0,1.0,95,0.00,,,0.19,0.0,meteohub,2013-09-22 23:37:00,
2013-09-22 19:42:00,73.6,72.1,29.77,NW,318,0.0,1.0,95,0.00,,,0.19,0.0,meteohub,2013-09-22 23:42:00,
2013-09-22 19:47:00,73.2,71.8,29.77,NW,319,0.0,1.0,95,0.00,,,0.19,0.0,meteohub,2013-09-22 23:47:00,
2013-09-22 19:52:00,73.2,71.8,29.77,NW,318,0.0,1.0,95,0.00,,,0.19,0.0,meteohub,2013-09-22 23:52:00,
2013-09-22 19:57:00,73.0,71.6,29.77,NW,319,0.0,1.0,95,0.00,,,0.19,0.0,meteohub,2013-09-22 23:57:00,
2013-09-22 20:02:00,73.0,71.6,29.77,NW,319,0.0,1.0,95,0.00,,,0.19,0.0,meteohub,2013-09-23 00:02:00,
2013-09-22 20:07:00,73.0,71.6,29.78,NW,318,0.0,1.0,95,0.00,,,0.19,0.0,meteohub,2013-09-23 00:07:00,
2013-09-22 20:12:00,73.0,71.8,29.78,NW,319,0.0,0.0,96,0.00,,,0.19,0.0,meteohub,2013-09-23 00:12:00,
2013-09-22 20:17:00,73.0,71.8,29.78,NW,319,0.0,0.0,96,0.00,,,0.19,0.0,meteohub,2013-09-23 00:17:00,
2013-09-22 20:22:00,73.0,71.8,29.78,NW,318,0.0,0.0,96,0.00,,,0.19,0.0,meteohub,2013-09-23 00:22:00,
2013-09-22 20:27:00,73.0,71.8,29.78,NW,319,0.0,0.0,96,0.00,,,0.19,0.0,meteohub,2013-09-23 00:27:00,
2013-09-22 20:33:00,73.0,71.8,29.78,NW,318,0.0,0.0,96,0.00,,,0.19,0.0,meteohub,2013-09-23 00:33:00,
2013-09-22 20:38:00,73.0,71.8,29.78,NW,319,0.0,0.0,96,0.00,,,0.19,0.0,meteohub,2013-09-23 00:38:00,
2013-09-22 20:43:00,73.0,71.8,29.78,NW,319,0.0,0.0,96,0.00,,,0.19,0.0,meteohub,2013-09-23 00:43:00,
2013-09-22 20:48:00,72.9,71.6,29.78,NW,319,0.0,0.0,96,0.00,,,0.19,0.0,meteohub,2013-09-23 00:48:00,
2013-09-22 20:53:00,72.9,71.6,29.78,NW,319,0.0,0.0,96,0.00,,,0.19,0.0,meteohub,2013-09-23 00:53:00,
2013-09-22 20:58:00,72.7,71.4,29.78,NW,319,0.0,0.0,96,0.00,,,0.19,0.0,meteohub,2013-09-23 00:58:00,
2013-09-22 21:03:00,72.7,71.4,29.79,NW,319,0.0,0.0,96,0.00,,,0.19,0.0,meteohub,2013-09-23 01:03:00,
2013-09-22 21:08:00,72.7,71.4,29.79,NW,318,0.0,0.0,96,0.00,,,0.19,0.0,meteohub,2013-09-23 01:08:00,
2013-09-22 21:13:00,72.7,71.4,29.79,NW,319,0.0,0.0,96,0.00,,,0.19,0.0,meteohub,2013-09-23 01:13:00,
2013-09-22 21:18:00,72.7,71.4,29.79,NW,319,0.0,0.0,96,0.00,,,0.19,0.0,meteohub,2013-09-23 01:18:00,
2013-09-22 21:23:00,72.7,71.4,29.80,NW,319,0.0,0.0,96,0.00,,,0.19,0.0,meteohub,2013-09-23 01:23:00,
2013-09-22 21:28:00,72.5,71.2,29.80,NW,319,0.0,0.0,96,0.00,,,0.19,0.0,meteohub,2013-09-23 01:28:00,
2013-09-22 21:33:00,72.5,71.6,29.80,NW,319,0.0,0.0,97,0.00,,,0.19,0.0,meteohub,2013-09-23 01:33:00,
2013-09-22 21:38:00,72.5,71.6,29.80,NW,318,0.0,0.0,97,0.00,,,0.19,0.0,meteohub,2013-09-23 01:38:00,
2013-09-22 21:43:00,72.5,71.6,29.80,NW,319,0.0,0.0,97,0.00,,,0.19,0.0,meteohub,2013-09-23 01:43:00,
2013-09-22 21:48:00,72.5,71.6,29.80,NW,318,0.0,0.0,97,0.00,,,0.19,0.0,meteohub,2013-09-23 01:48:00,
2013-09-22 21:53:00,72.7,71.8,29.80,NW,318,0.0,0.0,97,0.00,,,0.19,0.0,meteohub,2013-09-23 01:53:00,
2013-09-22 21:59:00,72.7,71.8,29.79,NW,319,0.0,0.0,97,0.00,,,0.19,0.0,meteohub,2013-09-23 01:59:00,
2013-09-22 22:04:00,72.7,71.8,29.79,NW,319,0.0,1.0,97,0.00,,,0.19,0.0,meteohub,2013-09-23 02:04:00,
2013-09-22 22:09:00,72.5,71.6,29.79,NW,318,0.0,2.0,97,0.00,,,0.19,0.0,meteohub,2013-09-23 02:09:00,
2013-09-22 22:14:00,72.3,71.4,29.79,NW,319,0.0,2.0,97,0.00,,,0.19,0.0,meteohub,2013-09-23 02:14:00,
2013-09-22 22:19:00,72.1,71.2,29.79,NW,319,0.0,2.0,97,0.00,,,0.19,0.0,meteohub,2013-09-23 02:19:00,
2013-09-22 22:24:00,72.1,71.2,29.80,NW,319,0.0,1.0,97,0.00,,,0.19,0.0,meteohub,2013-09-23 02:24:00,
2013-09-22 22:29:00,72.0,71.1,29.80,NW,319,0.0,0.0,97,0.00,,,0.19,0.0,meteohub,2013-09-23 02:29:00,
2013-09-22 22:34:00,71.8,70.9,29.80,NW,319,0.0,0.0,97,0.00,,,0.19,0.0,meteohub,2013-09-23 02:34:00,
2013-09-22 22:39:00,71.8,70.9,29.80,NW,319,0.0,0.0,97,0.00,,,0.19,0.0,meteohub,2013-09-23 02:39:00,
2013-09-22 22:44:00,71.8,70.9,29.80,NW,318,0.0,0.0,97,0.00,,,0.19,0.0,meteohub,2013-09-23 02:44:00,
2013-09-22 22:49:00,72.0,71.1,29.80,NW,318,0.0,0.0,97,0.00,,,0.19,0.0,meteohub,2013-09-23 02:49:00,
2013-09-22 22:54:00,72.0,71.1,29.80,NW,319,0.0,0.0,97,0.00,,,0.19,0.0,meteohub,2013-09-23 02:54:00,
2013-09-22 22:59:00,72.0,71.1,29.80,NW,319,0.0,0.0,97,0.00,,,0.19,0.0,meteohub,2013-09-23 02:59:00,
2013-09-22 23:04:00,71.8,70.9,29.80,NW,319,0.0,0.0,97,0.00,,,0.19,0.0,meteohub,2013-09-23 03:04:00,
2013-09-22 23:09:00,71.6,70.7,29.81,NW,319,0.0,0.0,97,0.00,,,0.19,0.0,meteohub,2013-09-23 03:09:00,
2013-09-22 23:14:00,71.4,70.5,29.80,NW,318,0.0,0.0,97,0.00,,,0.19,0.0,meteohub,2013-09-23 03:14:00,
2013-09-22 23:19:00,71.4,70.5,29.80,NW,319,0.0,0.0,97,0.00,,,0.19,0.0,meteohub,2013-09-23 03:19:00,
2013-09-22 23:24:00,71.2,70.3,29.80,NW,319,0.0,0.0,97,0.00,,,0.19,0.0,meteohub,2013-09-23 03:24:00,
2013-09-22 23:29:00,71.2,70.3,29.81,NW,318,0.0,0.0,97,0.00,,,0.19,0.0,meteohub,2013-09-23 03:29:00,
2013-09-22 23:34:00,71.2,70.3,29.81,NW,319,0.0,0.0,97,0.00,,,0.19,0.0,meteohub,2013-09-23 03:34:00,
2013-09-22 23:39:00,71.2,70.3,29.81,NW,318,0.0,0.0,97,0.00,,,0.19,0.0,meteohub,2013-09-23 03:39:00,
2013-09-22 23:44:00,71.2,70.3,29.81,NW,318,0.0,0.0,97,0.00,,,0.19,0.0,meteohub,2013-09-23 03:44:00,
2013-09-22 23:49:00,71.4,70.5,29.81,NW,319,0.0,0.0,97,0.00,,,0.19,0.0,meteohub,2013-09-23 03:49:00,
2013-09-22 23:54:00,71.4,70.5,29.81,NW,319,0.0,0.0,97,0.00,,,0.19,0.0,meteohub,2013-09-23 03:54:00,
2013-09-22 23:59:00,71.4,70.5,29.81,NW,319,0.0,0.0,97,0.00,,,0.19,0.0,meteohub,2013-09-23 03:59:00,